�������l�o���
Date,Time,MP-1(��Sv/h),MP-2(��Sv/h),MP-3(��Sv/h),MP-4(��Sv/h),MP-5(��Sv/h),MP-6(��Sv/h),MP-7(��Sv/h),MP-8(��Sv/h),����,����(m/s),���J
2020/03/13,00:00,0.684,0.987,0.659,1.203,0.856,0.397,0.691,0.658,���쐼,0.9,��
2020/03/13,00:10,0.684,0.988,0.658,1.203,0.856,0.396,0.690,0.658,���쐼,1.2,��
2020/03/13,00:20,0.687,0.988,0.660,1.204,0.854,0.396,0.690,0.658,�쐼,0.9,��
2020/03/13,00:30,0.686,0.988,0.659,1.204,0.857,0.398,0.692,0.659,��쐼,2.5,��
2020/03/13,00:40,0.685,0.989,0.660,1.205,0.853,0.397,0.692,0.657,��,3.8,��
2020/03/13,00:50,0.686,0.990,0.659,1.203,0.855,0.397,0.691,0.657,��,3.6,��
2020/03/13,01:00,0.685,0.988,0.660,1.204,0.858,0.396,0.693,0.658,��,2.6,��
2020/03/13,01:10,0.686,0.989,0.659,1.204,0.857,0.396,0.691,0.659,��쐼,0.6,��
2020/03/13,01:20,0.688,0.987,0.659,1.203,0.857,0.397,0.692,0.659,��쐼,1.4,��
2020/03/13,01:30,0.687,0.988,0.661,1.203,0.855,0.398,0.693,0.657,��쐼,3.8,��
2020/03/13,01:40,0.688,0.987,0.660,1.205,0.856,0.397,0.693,0.658,��쐼,3.7,��
2020/03/13,01:50,0.687,0.987,0.661,1.203,0.855,0.398,0.691,0.660,��쐼,3.1,��
2020/03/13,02:00,0.687,0.987,0.658,1.204,0.857,0.397,0.692,0.658,��쐼,3.9,��
2020/03/13,02:10,0.686,0.988,0.660,1.202,0.854,0.399,0.691,0.659,��쐼,5.1,��
2020/03/13,02:20,0.687,0.987,0.659,1.203,0.852,0.398,0.692,0.658,��쐼,7.2,��
2020/03/13,02:30,0.686,0.986,0.659,1.202,0.854,0.397,0.692,0.658,��쐼,7.9,��
2020/03/13,02:40,0.688,0.987,0.660,1.205,0.855,0.398,0.692,0.660,��쐼,7.7,��
2020/03/13,02:50,0.687,0.985,0.659,1.202,0.856,0.398,0.691,0.659,��,8.0,��
2020/03/13,03:00,0.686,0.986,0.660,1.205,0.855,0.395,0.693,0.659,��,6.7,��
2020/03/13,03:10,0.688,0.984,0.657,1.205,0.856,0.398,0.690,0.657,��,5.5,��
2020/03/13,03:20,0.687,0.987,0.658,1.204,0.855,0.397,0.691,0.659,��,5.6,��
2020/03/13,03:30,0.688,0.985,0.661,1.202,0.858,0.395,0.694,0.659,��쐼,5.1,��
2020/03/13,03:40,0.688,0.985,0.659,1.204,0.857,0.397,0.692,0.659,�쐼,4.0,��
2020/03/13,03:50,0.688,0.987,0.661,1.204,0.855,0.397,0.693,0.659,�쐼,4.9,��
2020/03/13,04:00,0.688,0.989,0.660,1.206,0.855,0.398,0.692,0.659,�쐼,5.2,��
2020/03/13,04:10,0.687,0.987,0.658,1.205,0.857,0.397,0.692,0.659,��쐼,3.1,��
2020/03/13,04:20,0.687,0.986,0.662,1.204,0.854,0.397,0.692,0.658,��,4.1,��
2020/03/13,04:30,0.688,0.989,0.659,1.203,0.856,0.397,0.693,0.658,��쓌,5.4,��
2020/03/13,04:40,0.688,0.987,0.659,1.204,0.855,0.397,0.694,0.658,��쓌,6.5,��
2020/03/13,04:50,0.687,0.989,0.660,1.205,0.854,0.397,0.691,0.658,��,6.5,��
2020/03/13,05:00,0.688,0.988,0.660,1.205,0.855,0.399,0.691,0.659,��쓌,5.7,��
2020/03/13,05:10,0.688,0.986,0.660,1.203,0.855,0.397,0.692,0.660,��,6.9,��
2020/03/13,05:20,0.688,0.985,0.660,1.207,0.854,0.396,0.693,0.658,��,6.7,��
2020/03/13,05:30,0.688,0.988,0.660,1.203,0.854,0.397,0.694,0.658,��,7.4,��
2020/03/13,05:40,0.688,0.986,0.658,1.202,0.855,0.397,0.693,0.660,��,7.1,��
2020/03/13,05:50,0.687,0.985,0.662,1.207,0.855,0.397,0.694,0.659,��쐼,7.4,��
2020/03/13,06:00,0.688,0.984,0.658,1.202,0.855,0.398,0.693,0.660,��,7.6,��
2020/03/13,06:10,0.689,0.987,0.660,1.202,0.855,0.399,0.694,0.660,��쐼,7.7,��
2020/03/13,06:20,0.689,0.987,0.658,1.204,0.854,0.397,0.694,0.659,��쐼,7.9,��
2020/03/13,06:30,0.686,0.986,0.659,1.205,0.855,0.397,0.693,0.659,��쐼,6.5,��
2020/03/13,06:40,0.689,0.986,0.660,1.203,0.855,0.398,0.694,0.659,��쐼,6.3,��
2020/03/13,06:50,0.689,0.986,0.658,1.203,0.857,0.399,0.694,0.660,��쐼,4.4,��
2020/03/13,07:00,0.689,0.986,0.660,1.203,0.854,0.399,0.694,0.660,��쐼,2.6,��
2020/03/13,07:10,0.688,0.986,0.658,1.204,0.856,0.397,0.695,0.659,��쐼,3.8,��
2020/03/13,07:20,0.690,0.985,0.661,1.206,0.854,0.399,0.693,0.660,��쐼,4.0,��
2020/03/13,07:30,0.689,0.986,0.658,1.205,0.856,0.397,0.695,0.661,��,3.2,��
2020/03/13,07:40,0.689,0.988,0.658,1.204,0.855,0.397,0.695,0.658,��,2.5,��
2020/03/13,07:50,0.690,0.988,0.660,1.207,0.857,0.397,0.697,0.659,��,3.2,��
2020/03/13,08:00,0.691,0.988,0.659,1.205,0.856,0.398,0.697,0.660,��쐼,3.2,��
2020/03/13,08:10,0.690,0.987,0.659,1.205,0.856,0.399,0.695,0.659,��쐼,2.5,��
2020/03/13,08:20,0.689,0.988,0.661,1.207,0.855,0.399,0.696,0.659,��,2.9,��
2020/03/13,08:30,0.692,0.986,0.660,1.206,0.858,0.398,0.695,0.660,��,2.2,��
2020/03/13,08:40,0.689,0.986,0.661,1.207,0.855,0.399,0.693,0.660,��,1.9,��
2020/03/13,08:50,0.690,0.985,0.661,1.204,0.856,0.397,0.694,0.660,��,2.2,��
2020/03/13,09:00,0.691,0.983,0.661,1.205,0.858,0.399,0.694,0.662,��,2.8,��
2020/03/13,09:10,0.692,0.982,0.661,1.203,0.858,0.399,0.694,0.661,��쓌,3.7,��
2020/03/13,09:20,0.690,0.978,0.660,1.205,0.857,0.400,0.693,0.660,��,3.5,��
2020/03/13,09:30,0.690,0.981,0.662,1.206,0.858,0.399,0.693,0.661,��쓌,4.4,��
2020/03/13,09:40,0.691,0.981,0.661,1.206,0.859,0.399,0.693,0.662,��쓌,5.0,��
2020/03/13,09:50,0.692,0.981,0.661,1.204,0.858,0.400,0.694,0.659,��쓌,5.7,��
2020/03/13,10:00,0.691,0.983,0.662,1.208,0.856,0.399,0.693,0.660,��쓌,6.5,��
2020/03/13,10:10,0.695,0.983,0.661,1.206,0.859,0.399,0.694,0.658,��쓌,6.4,��
2020/03/13,10:20,0.692,0.981,0.661,1.206,0.858,0.400,0.693,0.659,��쓌,6.7,��
2020/03/13,10:30,0.692,0.986,0.662,1.208,0.860,0.398,0.694,0.657,��쓌,8.5,��
2020/03/13,10:40,0.693,0.987,0.662,1.207,0.859,0.398,0.692,0.658,��쓌,9.2,��
2020/03/13,10:50,0.692,0.987,0.663,1.207,0.859,0.398,0.693,0.658,��쓌,9.1,��
2020/03/13,11:00,0.690,0.989,0.661,1.206,0.858,0.399,0.694,0.658,��쓌,7.4,��
2020/03/13,11:10,0.690,0.987,0.662,1.209,0.857,0.398,0.694,0.657,��쓌,7.9,��
2020/03/13,11:20,0.691,0.987,0.661,1.207,0.859,0.399,0.695,0.659,��쓌,8.9,��
2020/03/13,11:30,0.690,0.985,0.662,1.208,0.856,0.398,0.694,0.657,��쓌,8.4,��
2020/03/13,11:40,0.691,0.988,0.661,1.205,0.857,0.398,0.695,0.660,��쓌,7.4,��
2020/03/13,11:50,0.691,0.990,0.661,1.207,0.858,0.399,0.694,0.659,��,6.4,��
2020/03/13,12:00,0.692,0.989,0.661,1.206,0.858,0.398,0.694,0.658,��,8.5,��
2020/03/13,12:10,0.691,0.991,0.662,1.208,0.858,0.398,0.696,0.659,��,7.9,��
2020/03/13,12:20,0.692,0.990,0.660,1.208,0.860,0.399,0.695,0.658,��쓌,6.8,��
2020/03/13,12:30,0.692,0.990,0.662,1.207,0.860,0.398,0.693,0.658,��쓌,7.0,��
2020/03/13,12:40,0.693,0.992,0.663,1.209,0.862,0.401,0.696,0.660,��쓌,7.7,��
2020/03/13,12:50,0.692,0.990,0.660,1.210,0.860,0.400,0.694,0.659,��쓌,5.8,��
2020/03/13,13:00,0.691,0.990,0.663,1.208,0.860,0.403,0.697,0.660,��쓌,4.5,��
2020/03/13,13:10,0.694,0.992,0.661,1.209,0.860,0.403,0.695,0.659,��쓌,4.5,��
2020/03/13,13:20,0.694,0.990,0.663,1.208,0.860,0.401,0.696,0.659,��,4.7,��
2020/03/13,13:30,0.694,0.991,0.665,1.207,0.860,0.403,0.696,0.659,��,5.6,��
2020/03/13,13:40,0.695,0.990,0.664,1.209,0.860,0.402,0.696,0.661,��,6.5,��
2020/03/13,13:50,0.695,0.991,0.663,1.212,0.860,0.401,0.697,0.659,��,7.5,��
2020/03/13,14:00,0.695,0.990,0.662,1.211,0.863,0.401,0.696,0.660,���쐼,6.9,��
2020/03/13,14:10,0.694,0.989,0.664,1.208,0.862,0.402,0.697,0.659,���쐼,6.3,��
2020/03/13,14:20,0.697,0.991,0.665,1.211,0.864,0.402,0.696,0.660,���쐼,3.9,��
2020/03/13,14:30,0.696,0.992,0.664,1.210,0.860,0.401,0.696,0.660,���쐼,5.5,��
2020/03/13,14:40,0.695,0.992,0.664,1.210,0.859,0.402,0.698,0.660,���쐼,7.6,��
2020/03/13,14:50,0.697,0.993,0.663,1.212,0.864,0.402,0.697,0.661,���쐼,6.6,��
2020/03/13,15:00,0.696,0.990,0.666,1.212,0.861,0.401,0.697,0.659,��,6.4,��
2020/03/13,15:10,0.695,0.993,0.665,1.211,0.860,0.402,0.699,0.660,���쐼,4.2,��
2020/03/13,15:20,0.696,0.993,0.665,1.211,0.861,0.402,0.699,0.661,��,5.7,��
2020/03/13,15:30,0.696,0.995,0.664,1.212,0.861,0.401,0.698,0.661,��,5.6,��
2020/03/13,15:40,0.695,0.993,0.662,1.212,0.863,0.402,0.697,0.660,��,5.7,��
2020/03/13,15:50,0.696,0.995,0.662,1.214,0.864,0.401,0.700,0.660,��,4.8,��
2020/03/13,16:00,0.697,0.994,0.664,1.213,0.863,0.401,0.698,0.658,���k��,6.4,��
2020/03/13,16:10,0.695,0.997,0.664,1.211,0.862,0.403,0.697,0.660,���k��,6.3,��
2020/03/13,16:20,0.695,0.998,0.663,1.214,0.862,0.402,0.696,0.660,��,4.4,��
2020/03/13,16:30,0.695,0.993,0.664,1.211,0.862,0.403,0.698,0.661,��,6.2,��
2020/03/13,16:40,0.695,0.995,0.661,1.212,0.863,0.403,0.696,0.660,���쐼,5.1,��
2020/03/13,16:50,0.695,0.995,0.664,1.211,0.863,0.404,0.696,0.659,���쐼,2.9,��
2020/03/13,17:00,0.693,0.994,0.664,1.214,0.863,0.404,0.696,0.660,�k��,5.1,��
2020/03/13,17:10,0.695,0.997,0.666,1.211,0.863,0.402,0.696,0.660,���k��,2.9,��
2020/03/13,17:20,0.696,1.000,0.667,1.212,0.863,0.403,0.695,0.661,���쐼,1.8,��
2020/03/13,17:30,0.697,0.999,0.666,1.213,0.864,0.404,0.696,0.660,���k��,1.2,��
2020/03/13,17:40,0.698,0.999,0.667,1.213,0.864,0.404,0.696,0.663,���k��,1.8,��
2020/03/13,17:50,0.698,0.998,0.666,1.211,0.866,0.403,0.696,0.663,��쐼,1.5,��
2020/03/13,18:00,0.698,0.999,0.667,1.213,0.865,0.403,0.696,0.662,��쐼,1.2,��
2020/03/13,18:10,0.697,0.999,0.665,1.211,0.864,0.404,0.696,0.663,�k��,2.0,��
2020/03/13,18:20,0.698,0.999,0.668,1.212,0.864,0.403,0.698,0.662,���k��,2.3,��
2020/03/13,18:30,0.699,1.001,0.666,1.213,0.864,0.402,0.696,0.664,���k��,2.2,��
2020/03/13,18:40,0.695,0.998,0.667,1.213,0.867,0.403,0.697,0.662,���k��,2.0,��
2020/03/13,18:50,0.698,1.000,0.665,1.212,0.862,0.403,0.696,0.664,���k��,3.5,��
2020/03/13,19:00,0.697,1.000,0.666,1.213,0.864,0.403,0.698,0.661,��,4.5,��
2020/03/13,19:10,0.697,0.997,0.666,1.212,0.864,0.403,0.697,0.662,��,3.2,��
2020/03/13,19:20,0.696,0.999,0.667,1.212,0.866,0.402,0.697,0.662,��,3.2,��
2020/03/13,19:30,0.696,1.000,0.667,1.213,0.865,0.402,0.695,0.664,���k��,3.3,��
2020/03/13,19:40,0.698,1.000,0.666,1.215,0.864,0.403,0.696,0.661,���k��,3.5,��
2020/03/13,19:50,0.696,0.999,0.665,1.213,0.866,0.402,0.697,0.662,���k��,4.0,��
2020/03/13,20:00,0.699,0.999,0.667,1.213,0.866,0.402,0.696,0.662,�k��,5.8,��
2020/03/13,20:10,0.696,0.997,0.665,1.213,0.865,0.401,0.697,0.663,�k��,5.8,��
2020/03/13,20:20,0.695,0.998,0.667,1.212,0.866,0.402,0.697,0.663,�k��,4.6,��
2020/03/13,20:30,0.696,0.998,0.667,1.214,0.864,0.403,0.695,0.664,�k�k��,4.0,��
2020/03/13,20:40,0.694,0.996,0.665,1.213,0.863,0.400,0.696,0.662,�k,9.0,��
2020/03/13,20:50,0.695,0.999,0.664,1.209,0.864,0.400,0.694,0.662,�k�k��,9.5,��
2020/03/13,21:00,0.693,0.999,0.667,1.212,0.864,0.399,0.694,0.662,�k,9.5,��
2020/03/13,21:10,0.695,0.997,0.668,1.211,0.865,0.400,0.694,0.663,�k�k��,8.8,��
2020/03/13,21:20,0.694,0.997,0.664,1.213,0.864,0.399,0.697,0.661,�k�k��,7.8,��
2020/03/13,21:30,0.692,0.996,0.665,1.213,0.865,0.401,0.694,0.663,�k�k��,8.5,��
2020/03/13,21:40,0.694,0.998,0.665,1.212,0.864,0.400,0.695,0.661,�k�k��,7.8,��
2020/03/13,21:50,0.693,0.998,0.664,1.213,0.864,0.399,0.694,0.662,�k,7.0,��
2020/03/13,22:00,0.694,0.995,0.665,1.212,0.866,0.400,0.694,0.661,�k,3.7,��
2020/03/13,22:10,0.693,0.998,0.665,1.213,0.865,0.398,0.695,0.660,�k,2.8,��
2020/03/13,22:20,0.694,0.997,0.665,1.214,0.862,0.399,0.695,0.662,�k,3.4,��
2020/03/13,22:30,0.693,0.996,0.665,1.211,0.865,0.400,0.696,0.662,�k,2.6,��
2020/03/13,22:40,0.695,0.997,0.665,1.213,0.862,0.399,0.696,0.660,�k,1.7,��
2020/03/13,22:50,0.693,0.996,0.664,1.213,0.864,0.399,0.696,0.660,�k�k��,2.0,��
2020/03/13,23:00,0.692,0.998,0.663,1.211,0.863,0.399,0.696,0.662,�k,2.6,��
2020/03/13,23:10,0.693,0.996,0.665,1.211,0.864,0.399,0.696,0.660,�k�k��,2.5,��
2020/03/13,23:20,0.691,0.996,0.666,1.212,0.864,0.399,0.697,0.664,�k�k��,3.6,��
2020/03/13,23:30,0.693,0.999,0.666,1.214,0.865,0.398,0.698,0.661,�k,4.8,��
2020/03/13,23:40,0.695,0.995,0.664,1.212,0.862,0.398,0.697,0.663,�k,5.5,��
2020/03/13,23:50,0.693,0.997,0.664,1.210,0.862,0.400,0.696,0.661,�k,6.0,��
